Regional Weather Roundup
Issued by NWS Boston, MA

Current Version | Previous Version | Text Only | Print | Product List | Glossary On
Versions: 1 2 3 4 5 6 7 8 9 10 11 12 13 14 15 16 17 18 19 20 21 22 23 24 25 26 27 28 29 30 31 32 33 34 35 36 37 38 39 40 41 42 43 44 45 46 47 48 49 50
000 ASUS41 KBOX 220010 RWRBOX REGIONAL WEATHER ROUNDUP NATIONAL WEATHER SERVICE BOSTON/NORTON MA 800 PM EDT TUE MAY 21 2019 NOTE: "FAIR" INDICATES FEW OR NO CLOUDS BELOW 12,000 FEET WITH NO SIGNIFICANT WEATHER AND/OR OBSTRUCTIONS TO VISIBILITY. MAZALL-220100- EASTERN MASSACHUSETTS CITY SKY/WX TMP DP RH WIND PRES REMARKS BOSTON FAIR 65 32 29 NW23G35 29.89R 6HR MIN TEMP: 65; 6HR MAX TEMP: 72; BEVERLY FAIR 60 34 37 NW22 29.88R LAWRENCE MOCLDY 60 34 37 W7G29 29.91R BEDFORD FAIR 61 32 33 NW13G24 29.90R BLUE HILL N/A 59 33 37 NW20G38 29.88R NORWOOD FAIR 64 33 31 NW15G23 29.90R MARSHFIELD FAIR 63 37 39 N8G18 29.89R PLYMOUTH FAIR 62 34 35 NW20G26 29.88R TAUNTON FAIR 64 33 31 NW10G21 29.89R NEW BEDFORD FAIR 63 36 36 NW10G18 29.89R $$ MAZALL-220100- CAPE COD AND THE ISLANDS CITY SKY/WX TMP DP RH WIND PRES REMARKS FALMOUTH FAIR 61 34 36 NW13G21 29.88R HYANNIS FAIR 59 40 49 NW10 29.86R CHATHAM FAIR 60 39 45 NW12G23 29.87R PROVINCETOWN FAIR 57 42 57 NW16G24 29.88R NANTUCKET FAIR 59 42 53 N9 29.87R MARTHAS VNYRD FAIR 63 37 38 NW14 29.88R $$ MAZALL-220100- CENTRAL AND WESTERN MASSACHUSETTS CITY SKY/WX TMP DP RH WIND PRES REMARKS WORCESTER FAIR 58 32 37 NW16G25 29.94R 6HR MIN TEMP: 58; 6HR MAX TEMP: 63; FITCHBURG FAIR 60 31 33 NW15G29 29.93R ORANGE MOCLDY 61 31 32 NW9 29.96R SPRINGFIELD MOCLDY 62 30 30 N12G17 29.95R WESTFIELD FAIR 62 31 31 N14G33 29.95R NORTH ADAMS FAIR 59 33 37 W9G22 29.98R PITTSFIELD FAIR 58 31 35 NW10G17 29.98R $$ RIZALL-220100- RHODE ISLAND CITY SKY/WX TMP DP RH WIND PRES REMARKS PROVIDENCE MOCLDY 64 31 28 NW18G29 29.91R 6HR MIN TEMP: 64; 6HR MAX TEMP: 70; NEWPORT FAIR 62 37 39 NW16G33 29.90R BLOCK ISLAND FAIR 60 42 51 NW9G17 29.92R SMITHFIELD FAIR 60 34 37 N14G21 29.92R WESTERLY FAIR 65 39 38 VRB7 29.92R $$ CTZALL-220100- CONNECTICUT CITY SKY/WX TMP DP RH WIND PRES REMARKS BRADLEY INTL MOCLDY 64 30 27 N13G23 29.96R 6HR MIN TEMP: 64; 6HR MAX TEMP: 70; HARTFORD FAIR 64 38 38 NW6 29.96R BRIDGEPORT FAIR 65 34 31 NW17G25 29.97R DANBURY FAIR 61 35 37 N6 30.02R GROTON FAIR 65 37 35 NW13 29.93R NEW HAVEN FAIR 66 37 34 NW10G20 29.97R CHESTER FAIR 61 37 41 NW8G18 29.96R MERIDEN FAIR 63 37 38 NW9 29.97R WILLIMANTIC FAIR 63 33 32 NW12G20 29.94R OXFORD FAIR 60 37 42 NW8G20 30.00R $$ MEZ002-015-021-024-NHZ003-005-008-011-012-014-VTZ005-008-220100- NORTHERN NEW ENGLAND CITY SKY/WX TMP DP RH WIND PRES REMARKS PORTLAND ME FAIR 56 36 47 NW15G24 29.83R 6HR MIN TEMP: 56; 6HR MAX TEMP: 64; BANGOR ME MOCLDY 54 37 52 N18G38 29.74R CONCORD NH CLOUDY 58 34 40 NW22G31 29.91R MANCHESTER NH MOCLDY 61 32 33 NW9G26 29.90R NASHUA NH FAIR 61 34 36 NW18G24 29.91R PORTSMOUTH NH PTCLDY 57 35 42 NW17 29.86R JAFFREY NH FAIR 58 30 34 NW14G23 29.94R KEENE NH MOCLDY 59 33 37 NW9G23 29.93R BURLINGTON VT MOCLDY 58 34 40 NW21G26 29.99R MT. WASHINGTON SNOWSHWR 27 27 100 NW79G96 N/A VSB 1/16WCI 3 $$ NYZ052-076-220100- EASTERN NEW YORK CITY SKY/WX TMP DP RH WIND PRES REMARKS ALBANY FAIR 62 33 33 NW16 30.00R 6HR MIN TEMP: 61; 6HR MAX TEMP: 67; NEW YORK CITY MOCLDY 68 33 27 N21G28 29.99R 6HR MIN TEMP: 68; 6HR MAX TEMP: 71; $$ ANZALL-220100- MARINE OBSERVATIONS STATION/POSITION TIME TEMP WIND PRES VSBY WAVE AIR SEA DIR/SP/G HT/PER (UTC) (F) (DEG/KT/KT) (MB) (MI) (FT/S) BOSTON BUOY 2350 57 52 320/ 17/ 21 1011.1R 3/ 4 BUZZARDS BAY NOT AVBL NANTUCKET SOUND 2350 59 55 350/ 12/ 16 1011.4R 2/ 3 MASS BAY-STELLWA 2304 56 49 320/ 17/ 23 1009.3R 1 7/8 3/ 3 ISLE OF SHOALS 2300 58 300/ 20/ 24 1009.9R S OF BLOCK IS 2330 53 N/A 4/ 7 $$ ......................KEY......................... SKY/WX - SKY CONDITION/PRESENT WEATHER TMP - TEMPERATURE IN FAHRENHEIT DWPT - DEWPOINT IN FAHRENHEIT RH - RELATIVE HUMIDITY IN PERCENT WIND - DIRECTION AND SPEED IN MPH PRES - MEAN SEA LEVEL PRESSURE IN INCHES OF HG WCI - WIND CHILL INDEX VSB - VISIBILITY IN MILES HX - HEAT INDEX TC - TEMPERATURE IN CELSIUS VRB - VARIABLE WIND DIRECTION N/A - NOT AVAILABLE

USA.gov is the U.S. government's official web portal to all federal, state and local government web resources and services.